Date String (YYYY-MM-DD hh:mm:ss) UTC,Instrument flags,Ambient pressure (hPa),Sample flow (lpm),Bypass flow (lpm),Sample temperature (°C),Ambient temperature (°C),ASC tube jacket temperature (°C),LED temperature (°C),Box temperature (°C),Sample RH (%),Span deviation,Mass concentration (μg/m³),Mass concentration (μg/m³),Mass concentration (μg/m³)
DateTimeUTC,F1_M11,P_M11,Q1_M11,Q2_M11,T1_M11,T2_M11,T3_M11,T4_M11,T5_M11,U1_M11,ZSPAN_M11,X0_M11,X2_M11,X1_M11
2022-12-13 11:00:00,,0810.2,5.00,0.00,21.4,19.5,00.0,30.3,23.0,10.6,0000.0,0005.52,0004.14,0004.02
2022-12-13 11:01:00,,0810.2,5.00,0.00,21.3,19.4,00.0,30.2,22.9,10.6,0000.0,0005.54,0004.15,0004.03
2022-12-13 11:02:00,,0810.2,5.00,0.00,21.3,19.4,00.0,30.2,22.9,10.7,0000.0,0005.72,0004.19,0004.05
2022-12-13 11:03:00,,0810.2,5.00,0.00,21.3,19.4,00.0,30.2,22.9,10.7,0000.0,0005.78,0004.19,0004.04
2022-12-13 11:04:00,,0810.1,5.00,0.00,21.2,19.4,00.0,30.2,22.9,10.7,0000.0,0005.98,0004.19,0004.05
2022-12-13 11:05:00,,0810.1,5.00,0.00,21.2,19.3,00.0,30.2,22.8,10.7,0000.0,0006.14,0004.20,0004.05
2022-12-13 11:06:00,,0810.1,5.00,0.00,21.2,19.3,00.0,30.2,22.8,10.7,0000.0,0006.27,0004.23,0004.06
2022-12-13 11:07:00,,0810.1,5.01,0.00,21.2,20.2,00.0,30.1,23.0,10.7,0000.0,0006.33,0004.25,0004.07
2022-12-13 11:08:00,,0810.1,4.97,0.00,21.4,21.4,00.0,30.1,23.3,10.6,0000.0,0006.35,0004.26,0004.07
2022-12-13 11:09:00,,0810.1,5.02,0.00,21.4,21.6,00.0,30.2,23.3,10.5,0000.0,0006.36,0004.26,0004.08
2022-12-13 11:10:00,,0810.1,5.00,0.00,21.4,20.9,00.0,30.2,23.3,10.5,0000.0,0006.25,0004.26,0004.09
2022-12-13 11:11:00,,0810.1,4.99,0.00,21.4,20.5,00.0,30.2,23.2,10.6,0000.0,0006.54,0004.27,0004.09
2022-12-13 11:12:00,,0810.1,5.00,0.00,21.4,20.3,00.0,30.2,23.2,10.6,0000.0,0006.92,0004.27,0004.09
2022-12-13 11:13:00,,0810.0,5.01,0.00,21.4,20.1,00.0,30.2,23.1,10.6,0000.0,0006.78,0004.24,0004.09
2022-12-13 11:14:00,,0810.0,5.01,0.00,21.4,19.9,00.0,30.2,23.1,10.6,0000.0,0006.68,0004.24,0004.10
2022-12-13 11:15:00,,0810.0,5.00,0.00,21.4,19.8,00.0,30.2,23.1,10.7,0000.0,0006.49,0004.25,0004.10
2022-12-13 11:16:00,,0810.0,5.00,0.00,21.4,19.6,00.0,30.2,23.0,10.6,0000.0,0006.33,0004.24,0004.10
2022-12-13 11:17:00,,0810.0,5.00,0.00,21.3,19.5,00.0,30.2,23.0,10.7,0000.0,0006.21,0004.23,0004.10
2022-12-13 11:18:00,,0809.9,4.99,0.00,21.3,19.4,00.0,30.2,23.0,10.6,0000.0,0006.15,0004.22,0004.10
2022-12-13 11:19:00,,0809.9,5.00,0.00,21.3,19.3,00.0,30.2,22.9,10.7,0000.0,0006.15,0004.22,0004.11
2022-12-13 11:20:00,,0809.8,5.00,0.00,21.2,19.3,00.0,30.1,22.9,10.7,0000.0,0006.14,0004.22,0004.11
2022-12-13 11:21:00,,0809.9,5.02,0.00,21.3,20.3,00.0,30.1,23.0,10.7,0000.0,0006.23,0004.24,0004.12
2022-12-13 11:22:00,,0809.9,4.98,0.00,21.4,21.5,00.0,30.1,23.3,10.6,0000.0,0006.42,0004.26,0004.12
2022-12-13 11:23:00,,0810.0,4.99,0.00,21.5,21.5,00.0,30.2,23.4,10.6,0000.0,0006.07,0004.27,0004.11
2022-12-13 11:24:00,,0810.0,5.01,0.00,21.5,20.9,00.0,30.2,23.3,10.6,0000.0,0006.06,0004.26,0004.10
2022-12-13 11:25:00,,0809.9,5.01,0.00,21.4,20.4,00.0,30.2,23.2,10.6,0000.0,0006.17,0004.28,0004.10
2022-12-13 11:26:00,,0809.9,5.00,0.00,21.4,19.9,00.0,30.2,23.0,10.6,0000.0,0006.14,0004.27,0004.09
2022-12-13 11:27:00,,0809.9,5.00,0.00,21.3,19.5,00.0,30.2,22.9,10.6,0000.0,0006.45,0004.25,0004.08
2022-12-13 11:28:00,,0809.9,4.99,0.00,21.3,19.3,00.0,30.2,22.8,10.7,0000.0,0007.47,0004.25,0004.07
2022-12-13 11:29:00,,0809.9,4.99,0.00,21.2,19.1,00.0,30.2,22.8,10.7,0000.0,0007.50,0004.25,0004.07
2022-12-13 11:30:00,,0809.9,5.04,0.00,21.2,18.9,00.0,30.1,22.7,10.8,0000.0,0007.54,0004.26,0004.07
2022-12-13 11:31:00,,0809.9,4.96,0.00,21.1,19.2,00.0,30.1,22.7,10.8,0000.0,0007.52,0004.24,0004.05
2022-12-13 11:32:00,,0809.9,5.02,0.00,21.2,20.5,00.0,30.1,23.0,10.8,0000.0,0007.82,0004.21,0004.03
2022-12-13 11:33:00,,0809.9,4.98,0.00,21.3,21.4,00.0,30.1,23.2,10.8,0000.0,0007.93,0004.17,0004.02
2022-12-13 11:34:00,,0809.8,5.01,0.00,21.4,21.0,00.0,30.1,23.2,10.8,0000.0,0007.83,0004.17,0004.02
2022-12-13 11:35:00,,0809.7,5.01,0.00,21.3,20.4,00.0,30.1,23.0,10.8,0000.0,0007.89,0004.19,0004.03
2022-12-13 11:36:00,,0809.7,4.97,0.00,21.3,19.9,00.0,30.1,22.9,10.8,0000.0,0007.88,0004.18,0004.03
2022-12-13 11:37:00,,0809.7,5.02,0.00,21.2,19.4,00.0,30.1,22.8,10.9,0000.0,0007.89,0004.19,0004.03
2022-12-13 11:38:00,,0809.7,5.00,0.00,21.1,19.1,00.0,30.1,22.7,10.9,0000.0,0007.94,0004.21,0004.04
2022-12-13 11:39:00,,0809.7,4.97,0.00,21.1,18.8,00.0,30.1,22.6,10.9,0000.0,0007.14,0004.21,0004.05
2022-12-13 11:40:00,,0809.7,5.05,0.00,21.0,18.7,00.0,30.0,22.5,10.9,0000.0,0007.03,0004.20,0004.05
2022-12-13 11:41:00,,0809.8,4.97,0.00,21.0,19.4,00.0,30.0,22.6,10.9,0000.0,0006.91,0004.18,0004.05
2022-12-13 11:42:00,,0809.7,5.02,0.00,21.1,20.8,00.0,30.0,22.9,10.8,0000.0,0006.89,0004.18,0004.05
2022-12-13 11:43:00,,0809.5,4.97,0.00,21.2,21.1,00.0,30.0,23.0,10.8,0000.0,0006.63,0004.19,0004.05
2022-12-13 11:44:00,,0809.6,5.02,0.00,21.2,20.5,00.0,30.0,22.9,10.7,0000.0,0005.80,0004.21,0004.07
2022-12-13 11:45:00,,0809.5,5.00,0.00,21.1,19.8,00.0,30.0,22.7,10.8,0000.0,0005.80,0004.21,0004.07
2022-12-13 11:46:00,,0809.5,5.00,0.00,21.1,19.3,00.0,30.0,22.6,10.8,0000.0,0005.74,0004.20,0004.07
2022-12-13 11:47:00,,0809.5,4.99,0.00,21.0,18.9,00.0,30.0,22.5,10.8,0000.0,0005.89,0004.22,0004.07
2022-12-13 11:48:00,,0809.5,4.99,0.00,20.9,18.7,00.0,30.0,22.4,10.9,0000.0,0007.42,0004.23,0004.06
2022-12-13 11:49:00,,0809.5,5.04,0.00,20.9,18.7,00.0,29.9,22.4,10.9,0000.0,0007.65,0004.21,0004.06
2022-12-13 11:50:00,,0809.5,4.96,0.00,20.9,20.1,00.0,29.9,22.6,10.8,0000.0,0007.59,0004.22,0004.05
2022-12-13 11:51:00,,0809.5,5.02,0.00,21.1,21.3,00.0,29.9,22.9,10.8,0000.0,0007.62,0004.22,0004.04
2022-12-13 11:52:00,,0809.5,5.00,0.00,21.2,21.6,00.0,29.9,23.1,10.8,0000.0,0007.62,0004.22,0004.04
2022-12-13 11:53:00,,0809.4,4.99,0.00,21.2,20.9,00.0,30.0,23.0,10.8,0000.0,0007.61,0004.22,0004.03
2022-12-13 11:54:00,,0809.4,5.02,0.00,21.1,20.2,00.0,30.0,22.8,10.8,0000.0,0007.72,0004.25,0004.05
2022-12-13 11:55:00,,0809.3,4.97,0.00,21.1,19.6,00.0,30.0,22.6,10.8,0000.0,0007.70,0004.25,0004.05
2022-12-13 11:56:00,,0809.3,5.05,0.00,21.0,19.2,00.0,30.0,22.6,10.8,0000.0,0007.76,0004.27,0004.07
2022-12-13 11:57:00,,0809.3,4.95,0.00,21.0,18.9,00.0,29.9,22.5,10.8,0000.0,0007.76,0004.28,0004.08
2022-12-13 11:58:00,,0809.3,5.05,0.00,20.9,18.6,00.0,29.9,22.4,10.9,0000.0,0007.66,0004.26,0004.10
2022-12-13 11:59:00,,0809.3,4.96,0.00,20.8,18.4,00.0,29.9,22.3,10.9,0000.0,0006.46,0004.27,0004.13
